CST,Max TemperatureF,Mean TemperatureF,Min TemperatureF,Max Dew PointF,MeanDew PointF,Min DewpointF,Max Humidity, Mean Humidity, Min Humidity, Max Sea Level PressureIn, Mean Sea Level PressureIn, Min Sea Level PressureIn, Max VisibilityMiles, Mean VisibilityMiles, Min VisibilityMiles, Max Wind SpeedMPH, Mean Wind SpeedMPH, Max Gust SpeedMPH,PrecipitationIn, CloudCover, Events, WindDirDegrees
2011-12-1,83,70,56,58,55,52,93,65,37,30.12,30.04,29.97,10,10,10,30,13,39,0.00,0,,135
2011-12-2,82,72,61,65,62,56,90,71,51,30.18,30.11,30.05,10,10,7,25,11,31,T,5,Rain,127
2011-12-3,85,77,68,65,62,59,84,64,43,30.04,29.95,29.87,10,10,10,31,18,39,0.00,1,,151
2011-12-4,82,72,62,66,63,56,84,68,51,29.94,29.89,29.80,10,10,10,28,13,36,T,4,,158
2011-12-5,69,61,52,56,48,41,83,61,39,30.20,30.05,29.88,10,10,10,22,15,30,T,7,Rain,340
2011-12-6,53,48,42,41,36,29,71,59,46,30.41,30.29,30.20,10,10,10,20,12,28,0.00,6,,345
2011-12-7,59,47,35,29,27,22,75,49,23,30.51,30.40,30.31,10,10,10,12,4,17,0.00,0,,37
2011-12-8,68,53,38,50,39,29,77,60,42,30.32,30.20,30.09,10,10,9,15,3,17,0.00,3,,111
2011-12-9,80,67,54,61,57,50,93,73,52,30.23,30.13,30.06,10,10,10,16,6,18,0.00,3,,79
2011-12-10,68,63,58,64,61,55,100,88,76,30.32,30.26,30.20,10,7,2,22,11,28,1.66,8,Rain,60
2011-12-11,58,54,50,54,51,48,100,95,89,30.32,30.25,30.17,10,6,2,14,8,17,0.26,8,Rain,331
2011-12-12,66,58,50,61,56,50,100,92,84,30.19,30.15,30.10,10,8,3,9,3,13,0.02,7,Rain,268
2011-12-13,80,70,59,70,66,57,100,86,71,30.19,30.12,30.06,10,7,0,23,9,31,T,7,Fog-Rain,131
2011-12-14,84,77,70,70,68,66,93,76,58,30.04,29.97,29.88,10,10,10,31,19,38,T,4,,147
2011-12-15,81,75,68,70,67,65,90,74,58,30.03,29.96,29.90,10,10,9,17,8,23,0.00,6,,154
2011-12-16,70,62,54,65,56,52,93,87,81,30.35,30.21,30.03,10,9,5,17,11,22,0.06,8,Rain,331
2011-12-17,56,55,54,55,53,52,100,93,86,30.44,30.38,30.33,10,9,4,14,9,18,0.13,8,Rain,330
2011-12-18,61,58,54,56,54,51,100,88,75,30.42,30.24,30.07,10,7,2,9,5,12,0.05,8,Rain,298
2011-12-19,80,68,55,65,62,56,100,77,54,30.03,29.86,29.74,10,7,0,32,16,41,0.00,3,Fog,150
2011-12-20,71,64,57,65,53,39,97,65,33,30.03,29.92,29.84,10,8,0,21,8,25,0.00,6,Fog,312
2011-12-21,61,58,55,54,47,41,86,70,53,30.05,29.94,29.85,10,10,3,13,7,16,T,8,Rain,360
2011-12-22,72,62,52,52,50,45,93,66,38,30.16,30.02,29.90,10,10,7,17,7,23,T,4,Rain,338
2011-12-23,54,52,49,52,47,43,93,80,66,30.32,30.23,30.15,10,8,4,21,9,26,0.06,6,Rain,333
2011-12-24,50,49,47,47,46,45,93,90,86,30.37,30.27,30.21,10,9,4,23,13,30,0.03,8,Rain,317
2011-12-25,61,55,48,46,41,36,93,66,39,30.44,30.36,30.30,10,10,10,22,11,31,0.00,5,,319
2011-12-26,62,53,43,42,39,35,89,63,36,30.35,30.26,30.16,10,10,10,17,5,35,0.00,3,,309
2011-12-27,75,57,39,45,40,34,93,57,21,30.31,30.23,30.17,10,10,7,10,3,13,0.00,0,,263
2011-12-28,77,61,44,53,47,42,93,65,36,30.20,30.10,30.00,10,10,6,22,4,31,0.00,0,,156
2011-12-29,79,63,47,51,42,33,93,56,19,30.12,30.02,29.94,10,10,10,9,3,12,0.00,0,,222
2011-12-30,85,68,50,62,52,42,100,62,23,30.04,29.98,29.93,10,7,0,9,4,13,0.00,1,Fog,153
2011-12-31,82,73,64,68,65,63,100,79,58,30.10,30.04,29.97,10,6,1,18,9,24,0.00,4,,159